User: anonymous   Login
Location: Capel Gartheli
(52.1833°N, 4.0667°W)
Time: 07:29:53
(UTC+00:00)
Language:

Cosmos 2333 Rocket - Orbit

View from above orbital plane
View from above orbital plane
View from above satellite
View from above satellite

Ground track
Ground track

The orbit data is extracted from the following two-line orbital elements,

1 24298U 96051B   20156.83880794 -.00000043 +00000-0 +30147-5 0  9995
2 24298 070.8438 297.1164 0014197 001.6479 358.4686 14.12500425224570
Epoch (UTC): 04 June 2020 20:07:53
Eccentricity: 0.0014197
inclination: 70.8438°
perigee height: 840 km
apogee height: 861 km
right ascension of ascending node: 297.1164°
argument of perigee: 1.6479°
revolutions per day: 14.12500425
mean anomaly at epoch: 358.4686°
orbit number at epoch: 22457

The dashed part of the orbit path shows where the satellite is in the earth's shadow,  

DLR